Retour au catalogue

OPS 4682 DEB

ActifPO
NORAD 38443·DEBRIS·🇺🇸 United States

Lancé Apr 3, 1965 depuis Vandenberg Space Force Base

Loading…

Prochains Passages (prochaines 24 heures)

TLE

FraisSource: Space-Track

Époque: Sep 14, 2026, 13:58 UTC

1 38443U 65027EY  26257.58199203  .00000352  00000-0  11279-2 0  9993
2 38443  90.2405   5.0460 0026928   9.4434 350.7190 13.00936875563449

Suivez OPS 4682 DEB en temps réel avec AllMySat

Download on the App Store